| time (UTC) | temp F | wind direction | speed MPH | gust MPH | rain 1hr in | rain 24hr in | rain mn in | humidity % | barometer mb |
| 20260831094457 | 56 | 23 | 1.0 | 2.0 | 0.00 | 0.00 | 0.00 | 76 | 1015.6 |
| 20260831094307 | 0 | 0.0 | 0.0 | 0.00 | 0.00 | 0.00 | |||
| 20260831093958 | 56 | 27 | 1.0 | 2.0 | 0.00 | 0.00 | 0.00 | 76 | 1015.6 |
| 20260831093807 | 0 | 0.0 | 0.0 | 0.00 | 0.00 | 0.00 | |||
| 20260831093457 | 55 | 16 | 1.0 | 2.0 | 0.00 | 0.00 | 0.00 | 77 | 1015.6 |
| 20260831093307 | 0 | 0.0 | 0.0 | 0.00 | 0.00 | 0.00 | |||
| 20260831092957 | 55 | 29 | 2.0 | 3.0 | 0.00 | 0.00 | 0.00 | 76 | 1015.6 |
| 20260831092808 | 0 | 0.0 | 0.0 | 0.00 | 0.00 | 0.00 | |||
| 20260831092458 | 56 | 45 | 2.0 | 3.0 | 0.00 | 0.00 | 0.00 | 76 | 1015.7 |
| 20260831092307 | 0 | 0.0 | 0.0 | 0.00 | 0.00 | 0.00 | |||
| 20260831091958 | 55 | 49 | 1.0 | 2.0 | 0.00 | 0.00 | 0.00 | 76 | 1015.8 |
| 20260831091806 | 0 | 0.0 | 0.0 | 0.00 | 0.00 | 0.00 | |||
| 20260831091457 | 55 | 42 | 1.0 | 3.0 | 0.00 | 0.00 | 0.00 | 77 | 1015.9 |
| 20260831091304 | 0 | 0.0 | 0.0 | 0.00 | 0.00 | 0.00 | |||
| 20260831090959 | 55 | 35 | 2.0 | 3.0 | 0.00 | 0.00 | 0.00 | 77 | 1015.9 |
| 20260831090804 | 0 | 0.0 | 0.0 | 0.00 | 0.00 | 0.00 | |||
| 20260831090458 | 55 | 39 | 2.0 | 2.0 | 0.00 | 0.00 | 0.00 | 77 | 1015.9 |
| 20260831090305 | 0 | 0.0 | 0.0 | 0.00 | 0.00 | 0.00 | |||
| 20260831085958 | 56 | 55 | 2.0 | 3.0 | 0.00 | 0.00 | 0.00 | 77 | 1015.9 |
| 20260831085804 | 0 | 0.0 | 0.0 | 0.00 | 0.00 | 0.00 | |||
| 20260831085502 | 56 | 33 | 2.0 | 3.0 | 0.00 | 0.00 | 0.00 | 77 | 1016.0 |
| 20260831085306 | 0 | 0.0 | 0.0 | 0.00 | 0.00 | 0.00 | |||
| 20260831084958 | 55 | 42 | 2.0 | 3.0 | 0.00 | 0.00 | 0.00 | 78 | 1016.1 |
| 20260831084805 | 0 | 0.0 | 0.0 | 0.00 | 0.00 | 0.00 | |||
| 20260831084500 | 55 | 28 | 2.0 | 3.0 | 0.00 | 0.00 | 0.00 | 78 | 1016.2 |
| 20260831084305 | 0 | 0.0 | 0.0 | 0.00 | 0.00 | 0.00 | |||
| 20260831083958 | 56 | 40 | 2.0 | 2.0 | 0.00 | 0.00 | 0.00 | 79 | 1016.2 |
| 20260831083805 | 0 | 0.0 | 0.0 | 0.00 | 0.00 | 0.00 | |||
| 20260831083457 | 56 | 39 | 2.0 | 3.0 | 0.00 | 0.00 | 0.00 | 79 | 1016.2 |
| 20260831083305 | 0 | 0.0 | 0.0 | 0.00 | 0.00 | 0.00 | |||
| 20260831082958 | 56 | 45 | 2.0 | 2.0 | 0.00 | 0.00 | 0.00 | 78 | 1016.2 |
| 20260831082805 | 0 | 0.0 | 0.0 | 0.00 | 0.00 | 0.00 | |||
| 20260831082458 | 56 | 44 | 2.0 | 4.0 | 0.00 | 0.00 | 0.00 | 78 | 1016.4 |
| 20260831082307 | 0 | 0.0 | 0.0 | 0.00 | 0.00 | 0.00 | |||
| 20260831081957 | 56 | 27 | 2.0 | 2.0 | 0.00 | 0.00 | 0.00 | 77 | 1016.5 |
| 20260831081805 | 0 | 0.0 | 0.0 | 0.00 | 0.00 | 0.00 | |||
| 20260831081457 | 56 | 32 | 2.0 | 2.0 | 0.00 | 0.00 | 0.00 | 77 | 1016.4 |
| 20260831081305 | 0 | 0.0 | 0.0 | 0.00 | 0.00 | 0.00 | |||
| 20260831080958 | 56 | 43 | 1.0 | 2.0 | 0.00 | 0.00 | 0.00 | 77 | 1016.5 |
| 20260831080803 | 0 | 0.0 | 0.0 | 0.00 | 0.00 | 0.00 | |||
| 20260831080457 | 56 | 44 | 1.0 | 2.0 | 0.00 | 0.00 | 0.00 | 78 | 1016.5 |
| 20260831080302 | 0 | 0.0 | 0.0 | 0.00 | 0.00 | 0.00 | |||
| 20260831075957 | 56 | 42 | 2.0 | 2.0 | 0.00 | 0.00 | 0.00 | 79 | 1016.5 |
| 20260831075803 | 0 | 0.0 | 0.0 | 0.00 | 0.00 | 0.00 | |||
| 20260831075458 | 56 | 33 | 2.0 | 3.0 | 0.00 | 0.00 | 0.00 | 79 | 1016.6 |
| 20260831075259 | 0 | 0.0 | 0.0 | 0.00 | 0.00 | 0.00 | |||
| 20260831074958 | 56 | 38 | 2.0 | 3.0 | 0.00 | 0.00 | 0.00 | 80 | 1016.6 |
| 20260831074757 | 0 | 0.0 | 0.0 | 0.00 | 0.00 | 0.00 | |||
| 20260831074457 | 56 | 41 | 0.0 | 2.0 | 0.00 | 0.00 | 0.00 | 80 | 1016.7 |
| 20260831073957 | 56 | 21 | 2.0 | 3.0 | 0.00 | 0.00 | 0.00 | 80 | 1016.7 |
| 20260831073757 | 0 | 0.0 | 0.0 | 0.00 | 0.00 | 0.00 | |||
| 20260831073458 | 56 | 35 | 2.0 | 3.0 | 0.00 | 0.00 | 0.00 | 80 | 1016.8 |
| 20260831072958 | 56 | 41 | 2.0 | 3.0 | 0.00 | 0.00 | 0.00 | 80 | 1016.9 |
| 20260831072756 | 0 | 0.0 | 0.0 | 0.00 | 0.00 | 0.00 | |||
| 20260831072457 | 56 | 36 | 2.0 | 2.0 | 0.00 | 0.00 | 0.00 | 80 | 1017.0 |
| 20260831072256 | 0 | 0.0 | 0.0 | 0.00 | 0.00 | 0.00 | |||
| 20260831071958 | 56 | 38 | 1.0 | 3.0 | 0.00 | 0.00 | 0.00 | 79 | 1017.0 |
| 20260831071755 | 0 | 0.0 | 0.0 | 0.00 | 0.00 | 0.00 | |||
| 20260831071501 | 56 | 36 | 2.0 | 4.0 | 0.00 | 0.00 | 0.00 | 79 | 1017.0 |
| 20260831070958 | 56 | 38 | 2.0 | 2.0 | 0.00 | 0.00 | 0.00 | 79 | 1017.0 |
| 20260831070755 | 0 | 0.0 | 0.0 | 0.00 | 0.00 | 0.00 | |||
| 20260831070457 | 56 | 30 | 2.0 | 2.0 | 0.00 | 0.00 | 0.00 | 79 | 1017.1 |
| 20260831070256 | 0 | 0.0 | 0.0 | 0.00 | 0.00 | 0.00 | |||
| 20260831065957 | 56 | 40 | 1.0 | 2.0 | 0.00 | 0.00 | 0.00 | 79 | 1017.1 |
| 20260831065756 | 0 | 0.0 | 0.0 | 0.00 | 0.00 | 0.00 | |||
| 20260831065457 | 56 | 37 | 2.0 | 3.0 | 0.00 | 0.00 | 0.00 | 79 | 1017.1 |
| 20260831065255 | 0 | 0.0 | 0.0 | 0.00 | 0.00 | 0.00 | |||
| 20260831064957 | 56 | 40 | 2.0 | 3.0 | 0.00 | 0.00 | 0.00 | 79 | 1017.1 |
| 20260831064457 | 56 | 40 | 1.0 | 2.0 | 0.00 | 0.00 | 0.00 | 78 | 1017.1 |
| 20260831064255 | 0 | 0.0 | 0.0 | 0.00 | 0.00 | 0.00 | |||
| 20260831063957 | 56 | 41 | 2.0 | 3.0 | 0.00 | 0.00 | 0.00 | 78 | 1017.2 |
| 20260831063755 | 0 | 0.0 | 0.0 | 0.00 | 0.00 | 0.00 | |||
| 20260831063459 | 56 | 26 | 2.0 | 3.0 | 0.00 | 0.00 | 0.00 | 77 | 1017.2 |
| 20260831063255 | 0 | 0.0 | 0.0 | 0.00 | 0.00 | 0.00 | |||
| 20260831062957 | 56 | 17 | 2.0 | 3.0 | 0.00 | 0.00 | 0.00 | 77 | 1017.3 |
| 20260831062756 | 0 | 0.0 | 0.0 | 0.00 | 0.00 | 0.00 | |||
| 20260831062457 | 56 | 38 | 2.0 | 3.0 | 0.00 | 0.00 | 0.00 | 78 | 1017.2 |
| 20260831062256 | 0 | 0.0 | 0.0 | 0.00 | 0.00 | 0.00 | |||
| 20260831061957 | 56 | 31 | 1.0 | 2.0 | 0.00 | 0.00 | 0.00 | 77 | 1017.3 |
| 20260831061755 | 0 | 0.0 | 0.0 | 0.00 | 0.00 | 0.00 | |||
| 20260831061457 | 56 | 39 | 2.0 | 2.0 | 0.00 | 0.00 | 0.00 | 78 | 1017.4 |
| 20260831061253 | 0 | 0.0 | 0.0 | 0.00 | 0.00 | 0.00 | |||
| 20260831060958 | 56 | 38 | 2.0 | 3.0 | 0.00 | 0.00 | 0.00 | 77 | 1017.4 |
| 20260831060457 | 56 | 32 | 2.0 | 3.0 | 0.00 | 0.00 | 0.00 | 77 | 1017.4 |
| 20260831060253 | 0 | 0.0 | 0.0 | 0.00 | 0.00 | 0.00 | |||
| 20260831055958 | 56 | 36 | 2.0 | 2.0 | 0.00 | 0.00 | 0.00 | 77 | 1017.5 |
| 20260831055753 | 0 | 0.0 | 0.0 | 0.00 | 0.00 | 0.00 | |||
| 20260831055457 | 56 | 41 | 2.0 | 2.0 | 0.00 | 0.00 | 0.00 | 77 | 1017.5 |
| 20260831055254 | 0 | 0.0 | 0.0 | 0.00 | 0.00 | 0.00 | |||
| 20260831054957 | 56 | 32 | 1.0 | 2.0 | 0.00 | 0.00 | 0.00 | 76 | 1017.5 |
| 20260831054753 | 0 | 0.0 | 0.0 | 0.00 | 0.00 | 0.00 | |||
| 20260831054458 | 56 | 30 | 2.0 | 3.0 | 0.00 | 0.00 | 0.00 | 75 | 1017.5 |
| 20260831054252 | 0 | 0.0 | 0.0 | 0.00 | 0.00 | 0.00 | |||
| 20260831053957 | 56 | 30 | 2.0 | 2.0 | 0.00 | 0.00 | 0.00 | 76 | 1017.5 |
| 20260831053750 | 0 | 0.0 | 0.0 | 0.00 | 0.00 | 0.00 | |||
| 20260831053458 | 56 | 32 | 2.0 | 3.0 | 0.00 | 0.00 | 0.00 | 78 | 1017.6 |
| 20260831053256 | 0 | 0.0 | 0.0 | 0.00 | 0.00 | 0.00 | |||
| 20260831052958 | 56 | 38 | 2.0 | 2.0 | 0.00 | 0.00 | 0.00 | 78 | 1017.6 |
| 20260831052458 | 56 | 33 | 1.0 | 2.0 | 0.00 | 0.00 | 0.00 | 78 | 1017.6 |
| 20260831052251 | 0 | 0.0 | 0.0 | 0.00 | 0.00 | 0.00 | |||
| 20260831051957 | 56 | 45 | 1.0 | 2.0 | 0.00 | 0.00 | 0.00 | 79 | 1017.7 |
| 20260831051457 | 56 | 42 | 1.0 | 2.0 | 0.00 | 0.00 | 0.00 | 78 | 1017.7 |
| 20260831050957 | 57 | 45 | 2.0 | 3.0 | 0.00 | 0.00 | 0.00 | 78 | 1017.8 |
| 20260831050750 | 0 | 0.0 | 0.0 | 0.00 | 0.00 | 0.00 | |||
| 20260831050458 | 57 | 47 | 2.0 | 3.0 | 0.00 | 0.00 | 0.00 | 78 | 1017.8 |
| 20260831050251 | 0 | 0.0 | 0.0 | 0.00 | 0.00 | 0.00 | |||
| 20260831045958 | 57 | 57 | 2.0 | 3.0 | 0.00 | 0.00 | 0.00 | 78 | 1017.9 |
| 20260831045458 | 57 | 39 | 2.0 | 3.0 | 0.00 | 0.00 | 0.00 | 77 | 1017.9 |
| 20260831044958 | 57 | 58 | 1.0 | 2.0 | 0.00 | 0.00 | 0.00 | 77 | 1017.9 |
| 20260831044751 | 0 | 0.0 | 0.0 | 0.00 | 0.00 | 0.00 | |||
| 20260831044457 | 58 | 61 | 1.0 | 2.0 | 0.00 | 0.00 | 0.00 | 77 | 1017.9 |
| 20260831044251 | 0 | 0.0 | 0.0 | 0.00 | 0.00 | 0.00 | |||
| 20260831043957 | 58 | 71 | 2.0 | 2.0 | 0.00 | 0.00 | 0.00 | 77 | 1017.9 |
| 20260831043458 | 58 | 62 | 1.0 | 2.0 | 0.00 | 0.00 | 0.00 | 77 | 1018.0 |
| 20260831043251 | 0 | 0.0 | 0.0 | 0.00 | 0.00 | 0.00 | |||
| 20260831042957 | 58 | 60 | 1.0 | 3.0 | 0.00 | 0.00 | 0.00 | 77 | 1018.0 |
| 20260831042751 | 0 | 0.0 | 0.0 | 0.00 | 0.00 | 0.00 | |||
| 20260831042458 | 58 | 68 | 2.0 | 3.0 | 0.00 | 0.00 | 0.00 | 76 | 1018.0 |
| 20260831042251 | 0 | 0.0 | 0.0 | 0.00 | 0.00 | 0.00 | |||
| 20260831041957 | 58 | 73 | 2.0 | 4.0 | 0.00 | 0.00 | 0.00 | 76 | 1018.1 |
| 20260831041754 | 0 | 0.0 | 0.0 | 0.00 | 0.00 | 0.00 | |||
| 20260831041458 | 58 | 72 | 2.0 | 3.0 | 0.00 | 0.00 | 0.00 | 76 | 1018.1 |
| 20260831041250 | 0 | 0.0 | 0.0 | 0.00 | 0.00 | 0.00 | |||
| 20260831040958 | 58 | 71 | 2.0 | 4.0 | 0.00 | 0.00 | 0.00 | 76 | 1018.1 |
| 20260831040754 | 0 | 0.0 | 0.0 | 0.00 | 0.00 | 0.00 | |||
| 20260831040457 | 58 | 92 | 2.0 | 4.0 | 0.00 | 0.00 | 0.00 | 75 | 1018.1 |
| 20260831040254 | 0 | 0.0 | 0.0 | 0.00 | 0.00 | 0.00 | |||
| 20260831035958 | 58 | 87 | 3.0 | 4.0 | 0.00 | 0.00 | 0.00 | 75 | 1018.2 |
| 20260831035750 | 0 | 0.0 | 0.0 | 0.00 | 0.00 | 0.00 | |||
| 20260831035458 | 58 | 89 | 4.0 | 6.0 | 0.00 | 0.00 | 0.00 | 74 | 1018.2 |
| 20260831035250 | 0 | 0.0 | 0.0 | 0.00 | 0.00 | 0.00 | |||
| 20260831034958 | 58 | 92 | 3.0 | 3.0 | 0.00 | 0.00 | 0.00 | 74 | 1018.2 |
| 20260831034754 | 0 | 0.0 | 0.0 | 0.00 | 0.00 | 0.00 | |||
| 20260831034458 | 58 | 97 | 2.0 | 4.0 | 0.00 | 0.00 | 0.00 | 74 | 1018.2 |
| 20260831034247 | 0 | 0.0 | 0.0 | 0.00 | 0.00 | 0.00 | |||
| 20260831033957 | 58 | 79 | 2.0 | 4.0 | 0.00 | 0.00 | 0.00 | 73 | 1018.1 |
| 20260831033458 | 58 | 95 | 3.0 | 4.0 | 0.00 | 0.00 | 0.00 | 73 | 1018.1 |
| 20260831033247 | 0 | 0.0 | 0.0 | 0.00 | 0.00 | 0.00 | |||
| 20260831032957 | 58 | 96 | 4.0 | 5.0 | 0.00 | 0.00 | 0.00 | 72 | 1018.0 |
| 20260831032744 | 0 | 0.0 | 0.0 | 0.00 | 0.00 | 0.00 | |||
| 20260831032457 | 58 | 90 | 3.0 | 4.0 | 0.00 | 0.00 | 0.00 | 72 | 1018.0 |
| 20260831032244 | 0 | 0.0 | 0.0 | 0.00 | 0.00 | 0.00 | |||
| 20260831031957 | 58 | 99 | 3.0 | 4.0 | 0.00 | 0.00 | 0.00 | 72 | 1018.0 |
| 20260831031744 | 0 | 0.0 | 0.0 | 0.00 | 0.00 | 0.00 | |||
| 20260831031457 | 58 | 94 | 3.0 | 4.0 | 0.00 | 0.00 | 0.00 | 72 | 1017.9 |
| 20260831031244 | 0 | 0.0 | 0.0 | 0.00 | 0.00 | 0.00 | |||
| 20260831030958 | 59 | 95 | 3.0 | 4.0 | 0.00 | 0.00 | 0.00 | 72 | 1018.0 |
| 20260831030744 | 0 | 0.0 | 0.0 | 0.00 | 0.00 | 0.00 | |||
| 20260831030457 | 59 | 106 | 3.0 | 4.0 | 0.00 | 0.00 | 0.00 | 71 | 1018.0 |
| 20260831030244 | 0 | 0.0 | 0.0 | 0.00 | 0.00 | 0.00 | |||
| 20260831025958 | 59 | 103 | 3.0 | 4.0 | 0.00 | 0.00 | 0.00 | 71 | 1018.1 |
| 20260831025744 | 0 | 0.0 | 0.0 | 0.00 | 0.00 | 0.00 | |||
| 20260831025458 | 59 | 82 | 3.0 | 5.0 | 0.00 | 0.00 | 0.00 | 71 | 1018.1 |
| 20260831025244 | 0 | 0.0 | 0.0 | 0.00 | 0.00 | 0.00 | |||
| 20260831024957 | 59 | 117 | 3.0 | 5.0 | 0.00 | 0.00 | 0.00 | 71 | 1018.1 |
| 20260831024744 | 0 | 0.0 | 0.0 | 0.00 | 0.00 | 0.00 | |||
| 20260831024457 | 59 | 102 | 4.0 | 5.0 | 0.00 | 0.00 | 0.00 | 70 | 1018.1 |
| 20260831024241 | 0 | 0.0 | 0.0 | 0.00 | 0.00 | 0.00 | |||
| 20260831023958 | 59 | 120 | 2.0 | 4.0 | 0.00 | 0.00 | 0.00 | 70 | 1018.1 |
| 20260831023742 | 0 | 0.0 | 0.0 | 0.00 | 0.00 | 0.00 | |||
| 20260831023457 | 59 | 120 | 2.0 | 3.0 | 0.00 | 0.00 | 0.00 | 70 | 1018.1 |
| 20260831023241 | 0 | 0.0 | 0.0 | 0.00 | 0.00 | 0.00 | |||
| 20260831022957 | 60 | 112 | 2.0 | 3.0 | 0.00 | 0.00 | 0.00 | 69 | 1018.1 |
| 20260831022458 | 60 | 112 | 3.0 | 4.0 | 0.00 | 0.00 | 0.00 | 69 | 1018.1 |
| 20260831022242 | 0 | 0.0 | 0.0 | 0.00 | 0.00 | 0.00 | |||
| 20260831021957 | 60 | 86 | 3.0 | 4.0 | 0.00 | 0.00 | 0.00 | 68 | 1018.2 |
| 20260831021742 | 0 | 0.0 | 0.0 | 0.00 | 0.00 | 0.00 | |||
| 20260831021459 | 60 | 96 | 4.0 | 5.0 | 0.00 | 0.00 | 0.00 | 68 | 1018.1 |
| 20260831021242 | 0 | 0.0 | 0.0 | 0.00 | 0.00 | 0.00 | |||
| 20260831020959 | 60 | 110 | 3.0 | 3.0 | 0.00 | 0.00 | 0.00 | 68 | 1018.2 |
| 20260831020742 | 0 | 0.0 | 0.0 | 0.00 | 0.00 | 0.00 | |||
| 20260831020457 | 60 | 119 | 2.0 | 3.0 | 0.00 | 0.00 | 0.00 | 67 | 1018.2 |
| 20260831020243 | 0 | 0.0 | 0.0 | 0.00 | 0.00 | 0.00 | |||
| 20260831015957 | 60 | 80 | 3.0 | 4.0 | 0.00 | 0.00 | 0.00 | 67 | 1018.3 |
| 20260831015742 | 0 | 0.0 | 0.0 | 0.00 | 0.00 | 0.00 | |||
| 20260831015458 | 60 | 120 | 2.0 | 2.0 | 0.00 | 0.00 | 0.00 | 67 | 1018.3 |
| 20260831015243 | 0 | 0.0 | 0.0 | 0.00 | 0.00 | 0.00 | |||
| 20260831014957 | 60 | 109 | 2.0 | 3.0 | 0.00 | 0.00 | 0.00 | 67 | 1018.3 |
| 20260831014742 | 0 | 0.0 | 0.0 | 0.00 | 0.00 | 0.00 | |||
| 20260831014457 | 60 | 124 | 2.0 | 3.0 | 0.00 | 0.00 | 0.00 | 66 | 1018.3 |
| 20260831014240 | 0 | 0.0 | 0.0 | 0.00 | 0.00 | 0.00 | |||
| 20260831013958 | 60 | 135 | 1.0 | 2.0 | 0.00 | 0.00 | 0.00 | 67 | 1018.3 |
| 20260831013740 | 0 | 0.0 | 0.0 | 0.00 | 0.00 | 0.00 | |||
| 20260831013458 | 60 | 126 | 2.0 | 3.0 | 0.00 | 0.00 | 0.00 | 66 | 1018.4 |
| 20260831013240 | 0 | 0.0 | 0.0 | 0.00 | 0.00 | 0.00 | |||
| 20260831012957 | 60 | 138 | 2.0 | 2.0 | 0.00 | 0.00 | 0.00 | 67 | 1018.4 |
| 20260831012740 | 0 | 0.0 | 0.0 | 0.00 | 0.00 | 0.00 | |||
| 20260831012457 | 60 | 112 | 2.0 | 3.0 | 0.00 | 0.00 | 0.00 | 67 | 1018.5 |
| 20260831012245 | 0 | 0.0 | 0.0 | 0.00 | 0.00 | 0.00 | |||
| 20260831011958 | 60 | 135 | 2.0 | 4.0 | 0.00 | 0.00 | 0.00 | 67 | 1018.5 |
| 20260831011740 | 0 | 0.0 | 0.0 | 0.00 | 0.00 | 0.00 | |||
| 20260831011459 | 60 | 152 | 2.0 | 2.0 | 0.00 | 0.00 | 0.00 | 67 | 1018.5 |
| 20260831011241 | 0 | 0.0 | 0.0 | 0.00 | 0.00 | 0.00 | |||
| 20260831011000 | 60 | 109 | 2.0 | 4.0 | 0.00 | 0.00 | 0.00 | 67 | 1018.5 |
| 20260831010740 | 0 | 0.0 | 0.0 | 0.00 | 0.00 | 0.00 | |||
| 20260831010458 | 60 | 145 | 2.0 | 4.0 | 0.00 | 0.00 | 0.00 | 68 | 1018.5 |
| 20260831010240 | 0 | 0.0 | 0.0 | 0.00 | 0.00 | 0.00 | |||
| 20260831005957 | 60 | 128 | 2.0 | 3.0 | 0.00 | 0.00 | 0.00 | 68 | 1018.6 |
| 20260831005457 | 60 | 158 | 2.0 | 2.0 | 0.00 | 0.00 | 0.00 | 68 | 1018.6 |
| 20260831005241 | 0 | 0.0 | 0.0 | 0.00 | 0.00 | 0.00 | |||
| 20260831004957 | 60 | 113 | 2.0 | 3.0 | 0.00 | 0.00 | 0.00 | 68 | 1018.6 |
| 20260831004741 | 0 | 0.0 | 0.0 | 0.00 | 0.00 | 0.00 | |||
| 20260831004457 | 61 | 160 | 1.0 | 2.0 | 0.00 | 0.00 | 0.00 | 68 | 1018.6 |
| 20260831004238 | 0 | 0.0 | 0.0 | 0.00 | 0.00 | 0.00 | |||
| 20260831003958 | 60 | 119 | 1.0 | 2.0 | 0.00 | 0.00 | 0.00 | 69 | 1018.6 |
| 20260831003737 | 0 | 0.0 | 0.0 | 0.00 | 0.00 | 0.00 | |||
| 20260831003457 | 60 | 143 | 2.0 | 3.0 | 0.00 | 0.00 | 0.00 | 69 | 1018.7 |
| 20260831003235 | 0 | 0.0 | 0.0 | 0.00 | 0.00 | 0.00 | |||
| 20260831002957 | 60 | 116 | 2.0 | 3.0 | 0.00 | 0.00 | 0.00 | 68 | 1018.7 |
| 20260831002501 | 60 | 120 | 1.0 | 2.0 | 0.00 | 0.00 | 0.00 | 68 | 1018.8 |
| 20260831001958 | 60 | 171 | 1.0 | 3.0 | 0.00 | 0.00 | 0.00 | 69 | 1018.8 |
| 20260831001735 | 0 | 0.0 | 0.0 | 0.00 | 0.00 | 0.00 | |||
| 20260831001457 | 60 | 78 | 3.0 | 5.0 | 0.00 | 0.00 | 0.00 | 69 | 1018.9 |
| 20260831001235 | 0 | 0.0 | 0.0 | 0.00 | 0.00 | 0.00 | |||
| 20260831000957 | 60 | 166 | 2.0 | 2.0 | 0.00 | 0.00 | 0.00 | 71 | 1018.9 |
| 20260831000734 | 0 | 0.0 | 0.0 | 0.00 | 0.00 | 0.00 | |||
| 20260831000458 | 60 | 170 | 2.0 | 3.0 | 0.00 | 0.00 | 0.00 | 71 | 1018.9 |
| 20260831000235 | 0 | 0.0 | 0.0 | 0.00 | 0.00 | 0.00 | |||
| 20260830235957 | 60 | 141 | 0.0 | 2.0 | 0.00 | 0.00 | 0.00 | 72 | 1019.0 |
| 20260830235736 | 0 | 0.0 | 0.0 | 0.00 | 0.00 | 0.00 | |||
| 20260830235457 | 60 | 118 | 2.0 | 3.0 | 0.00 | 0.00 | 0.00 | 72 | 1019.0 |
| 20260830234958 | 60 | 153 | 2.0 | 2.0 | 0.00 | 0.00 | 0.00 | 73 | 1019.1 |
| 20260830234735 | 0 | 0.0 | 0.0 | 0.00 | 0.00 | 0.00 | |||
| 20260830234458 | 60 | 111 | 1.0 | 2.0 | 0.00 | 0.00 | 0.00 | 73 | 1019.1 |
| 20260830234232 | 0 | 0.0 | 0.0 | 0.00 | 0.00 | 0.00 | |||
| 20260830233958 | 60 | 169 | 2.0 | 2.0 | 0.00 | 0.00 | 0.00 | 72 | 1019.1 |
| 20260830233503 | 60 | 191 | 2.0 | 3.0 | 0.00 | 0.00 | 0.00 | 72 | 1019.1 |
| 20260830233233 | 0 | 0.0 | 0.0 | 0.00 | 0.00 | 0.00 | |||
| 20260830232957 | 60 | 150 | 2.0 | 3.0 | 0.00 | 0.00 | 0.00 | 73 | 1019.1 |
| 20260830232733 | 0 | 0.0 | 0.0 | 0.00 | 0.00 | 0.00 | |||
| 20260830232457 | 60 | 168 | 2.0 | 3.0 | 0.00 | 0.00 | 0.00 | 72 | 1019.2 |
| 20260830232232 | 0 | 0.0 | 0.0 | 0.00 | 0.00 | 0.00 | |||
| 20260830231957 | 60 | 152 | 2.0 | 4.0 | 0.00 | 0.00 | 0.00 | 72 | 1019.2 |
| 20260830231733 | 0 | 0.0 | 0.0 | 0.00 | 0.00 | 0.00 | |||
| 20260830231457 | 61 | 175 | 4.0 | 6.0 | 0.00 | 0.00 | 0.00 | 71 | 1019.2 |
| 20260830231233 | 0 | 0.0 | 0.0 | 0.00 | 0.00 | 0.00 | |||
| 20260830230957 | 61 | 179 | 3.0 | 5.0 | 0.00 | 0.00 | 0.00 | 71 | 1019.2 |
| 20260830230733 | 0 | 0.0 | 0.0 | 0.00 | 0.00 | 0.00 | |||
| 20260830230458 | 61 | 131 | 2.0 | 3.0 | 0.00 | 0.00 | 0.00 | 70 | 1019.1 |
| 20260830230233 | 0 | 0.0 | 0.0 | 0.00 | 0.00 | 0.00 | |||
| 20260830225957 | 61 | 147 | 2.0 | 4.0 | 0.00 | 0.00 | 0.00 | 71 | 1019.1 |
| 20260830225734 | 0 | 0.0 | 0.0 | 0.00 | 0.00 | 0.00 | |||
| 20260830225457 | 60 | 167 | 4.0 | 6.0 | 0.00 | 0.00 | 0.00 | 72 | 1019.1 |
| 20260830225233 | 0 | 0.0 | 0.0 | 0.00 | 0.00 | 0.00 | |||
| 20260830224957 | 61 | 153 | 3.0 | 5.0 | 0.00 | 0.00 | 0.00 | 71 | 1019.1 |
| 20260830224734 | 0 | 0.0 | 0.0 | 0.00 | 0.00 | 0.00 | |||
| 20260830224457 | 61 | 169 | 3.0 | 5.0 | 0.00 | 0.00 | 0.00 | 70 | 1019.1 |
| 20260830224230 | 0 | 0.0 | 0.0 | 0.00 | 0.00 | 0.00 | |||
| 20260830223957 | 60 | 149 | 3.0 | 5.0 | 0.00 | 0.00 | 0.00 | 71 | 1019.1 |
| 20260830223731 | 0 | 0.0 | 0.0 | 0.00 | 0.00 | 0.00 | |||
| 20260830223457 | 60 | 183 | 3.0 | 5.0 | 0.00 | 0.00 | 0.00 | 72 | 1019.2 |
| 20260830222957 | 60 | 172 | 3.0 | 5.0 | 0.00 | 0.00 | 0.00 | 72 | 1019.2 |
| 20260830222731 | 0 | 0.0 | 0.0 | 0.00 | 0.00 | 0.00 | |||
| 20260830222458 | 60 | 125 | 3.0 | 4.0 | 0.00 | 0.00 | 0.00 | 71 | 1019.3 |
| 20260830222231 | 0 | 0.0 | 0.0 | 0.00 | 0.00 | 0.00 | |||
| 20260830221958 | 60 | 133 | 4.0 | 5.0 | 0.00 | 0.00 | 0.00 | 71 | 1019.4 |
| 20260830221731 | 0 | 0.0 | 0.0 | 0.00 | 0.00 | 0.00 | |||
| 20260830221458 | 60 | 127 | 3.0 | 5.0 | 0.00 | 0.00 | 0.00 | 71 | 1019.4 |
| 20260830221231 | 0 | 0.0 | 0.0 | 0.00 | 0.00 | 0.00 | |||
| 20260830220957 | 61 | 141 | 4.0 | 5.0 | 0.00 | 0.00 | 0.00 | 71 | 1019.5 |
| 20260830220732 | 0 | 0.0 | 0.0 | 0.00 | 0.00 | 0.00 | |||
| 20260830220457 | 61 | 161 | 3.0 | 5.0 | 0.00 | 0.00 | 0.00 | 70 | 1019.4 |
| 20260830220231 | 0 | 0.0 | 0.0 | 0.00 | 0.00 | 0.00 | |||
| 20260830215957 | 61 | 171 | 3.0 | 5.0 | 0.00 | 0.00 | 0.00 | 71 | 1019.5 |
| 20260830215731 | 0 | 0.0 | 0.0 | 0.00 | 0.00 | 0.00 | |||
| 20260830215458 | 61 | 160 | 4.0 | 6.0 | 0.00 | 0.00 | 0.00 | 71 | 1019.5 |
| 20260830215231 | 0 | 0.0 | 0.0 | 0.00 | 0.00 | 0.00 | |||
| 20260830214958 | 62 | 168 | 4.0 | 6.0 | 0.00 | 0.00 | 0.00 | 70 | 1019.4 |
| 20260830214732 | 0 | 0.0 | 0.0 | 0.00 | 0.00 | 0.00 | |||
| 20260830214457 | 62 | 162 | 3.0 | 5.0 | 0.00 | 0.00 | 0.00 | 69 | 1019.4 |
| 20260830214229 | 0 | 0.0 | 0.0 | 0.00 | 0.00 | 0.00 | |||
| 20260830213957 | 61 | 112 | 3.0 | 6.0 | 0.00 | 0.00 | 0.00 | 71 | 1019.5 |
| 20260830213729 | 0 | 0.0 | 0.0 | 0.00 | 0.00 | 0.00 | |||
| 20260830213457 | 61 | 158 | 4.0 | 6.0 | 0.00 | 0.00 | 0.00 | 70 | 1019.4 |
| 20260830213229 | 0 | 0.0 | 0.0 | 0.00 | 0.00 | 0.00 | |||
| 20260830212959 | 61 | 139 | 4.0 | 5.0 | 0.00 | 0.00 | 0.00 | 71 | 1019.4 |
| 20260830212729 | 0 | 0.0 | 0.0 | 0.00 | 0.00 | 0.00 | |||
| 20260830212457 | 62 | 164 | 6.0 | 9.0 | 0.00 | 0.00 | 0.00 | 70 | 1019.4 |
| 20260830212229 | 0 | 0.0 | 0.0 | 0.00 | 0.00 | 0.00 | |||
| 20260830211957 | 62 | 158 | 4.0 | 6.0 | 0.00 | 0.00 | 0.00 | 69 | 1019.4 |
| 20260830211458 | 62 | 161 | 4.0 | 6.0 | 0.00 | 0.00 | 0.00 | 70 | 1019.4 |
| 20260830211229 | 0 | 0.0 | 0.0 | 0.00 | 0.00 | 0.00 | |||
| 20260830210957 | 62 | 172 | 5.0 | 7.0 | 0.00 | 0.00 | 0.00 | 71 | 1019.5 |
| 20260830210458 | 62 | 156 | 6.0 | 8.0 | 0.00 | 0.00 | 0.00 | 70 | 1019.4 |
| 20260830210229 | 0 | 0.0 | 0.0 | 0.00 | 0.00 | 0.00 | |||
| 20260830205957 | 63 | 142 | 3.0 | 4.0 | 0.00 | 0.00 | 0.00 | 68 | 1019.2 |
| 20260830205729 | 0 | 0.0 | 0.0 | 0.00 | 0.00 | 0.00 | |||
| 20260830205457 | 62 | 199 | 6.0 | 9.0 | 0.00 | 0.00 | 0.00 | 70 | 1019.2 |
| 20260830205229 | 0 | 0.0 | 0.0 | 0.00 | 0.00 | 0.00 | |||
| 20260830205002 | 62 | 184 | 6.0 | 8.0 | 0.00 | 0.00 | 0.00 | 70 | 1019.2 |
| 20260830204730 | 0 | 0.0 | 0.0 | 0.00 | 0.00 | 0.00 | |||
| 20260830204457 | 61 | 146 | 3.0 | 5.0 | 0.00 | 0.00 | 0.00 | 70 | 1019.0 |
| 20260830203958 | 60 | 160 | 4.0 | 8.0 | 0.00 | 0.00 | 0.00 | 73 | 1019.3 |
| 20260830203724 | 0 | 0.0 | 0.0 | 0.00 | 0.00 | 0.00 | |||
| 20260830203457 | 61 | 163 | 5.0 | 7.0 | 0.00 | 0.00 | 0.00 | 71 | 1019.1 |
| 20260830203223 | 0 | 0.0 | 0.0 | 0.00 | 0.00 | 0.00 | |||
| 20260830202957 | 60 | 155 | 5.0 | 7.0 | 0.00 | 0.00 | 0.00 | 71 | 1019.1 |
| 20260830202457 | 60 | 164 | 5.0 | 8.0 | 0.00 | 0.00 | 0.00 | 73 | 1019.2 |
| 20260830202224 | 0 | 0.0 | 0.0 | 0.00 | 0.00 | 0.00 | |||
| 20260830201959 | 60 | 153 | 5.0 | 6.0 | 0.00 | 0.00 | 0.00 | 74 | 1019.3 |
| 20260830201457 | 60 | 151 | 4.0 | 6.0 | 0.00 | 0.00 | 0.00 | 74 | 1019.2 |
| 20260830200957 | 59 | 156 | 4.0 | 6.0 | 0.00 | 0.00 | 0.00 | 75 | 1019.2 |
| 20260830200724 | 0 | 0.0 | 0.0 | 0.00 | 0.00 | 0.00 | |||
| 20260830200457 | 59 | 159 | 4.0 | 8.0 | 0.00 | 0.00 | 0.00 | 76 | 1019.2 |
| 20260830200224 | 0 | 0.0 | 0.0 | 0.00 | 0.00 | 0.00 | |||
| 20260830195957 | 59 | 169 | 5.0 | 8.0 | 0.00 | 0.00 | 0.00 | 75 | 1019.3 |
| 20260830195724 | 0 | 0.0 | 0.0 | 0.00 | 0.00 | 0.00 | |||
| 20260830195457 | 58 | 169 | 4.0 | 7.0 | 0.00 | 0.00 | 0.00 | 76 | 1019.4 |
| 20260830195224 | 0 | 0.0 | 0.0 | 0.00 | 0.00 | 0.00 | |||
| 20260830194957 | 58 | 167 | 4.0 | 8.0 | 0.00 | 0.00 | 0.00 | 77 | 1019.4 |
| 20260830194725 | 0 | 0.0 | 0.0 | 0.00 | 0.00 | 0.00 | |||
| 20260830194457 | 57 | 157 | 6.0 | 7.0 | 0.00 | 0.00 | 0.00 | 78 | 1019.5 |
| 20260830194221 | 0 | 0.0 | 0.0 | 0.00 | 0.00 | 0.00 | |||
| 20260830193958 | 57 | 135 | 3.0 | 5.0 | 0.00 | 0.00 | 0.00 | 79 | 1019.5 |
| 20260830193457 | 57 | 169 | 5.0 | 7.0 | 0.00 | 0.00 | 0.00 | 78 | 1019.5 |
| 20260830193221 | 0 | 0.0 | 0.0 | 0.00 | 0.00 | 0.00 | |||
| 20260830192957 | 57 | 166 | 5.0 | 9.0 | 0.00 | 0.00 | 0.00 | 80 | 1019.5 |
| 20260830192722 | 0 | 0.0 | 0.0 | 0.00 | 0.00 | 0.00 | |||
| 20260830192458 | 57 | 167 | 5.0 | 7.0 | 0.00 | 0.00 | 0.00 | 81 | 1019.7 |
| 20260830192222 | 0 | 0.0 | 0.0 | 0.00 | 0.00 | 0.00 | |||
| 20260830191959 | 57 | 164 | 5.0 | 7.0 | 0.00 | 0.00 | 0.00 | 81 | 1019.7 |
| 20260830191722 | 0 | 0.0 | 0.0 | 0.00 | 0.00 | 0.00 | |||
| 20260830191457 | 57 | 164 | 5.0 | 9.0 | 0.00 | 0.00 | 0.00 | 81 | 1019.7 |
| 20260830191222 | 0 | 0.0 | 0.0 | 0.00 | 0.00 | 0.00 | |||
| 20260830190958 | 57 | 162 | 5.0 | 8.0 | 0.00 | 0.00 | 0.00 | 80 | 1019.7 |
| 20260830190458 | 57 | 147 | 2.0 | 4.0 | 0.00 | 0.00 | 0.00 | 81 | 1019.7 |
| 20260830185957 | 57 | 151 | 4.0 | 6.0 | 0.00 | 0.00 | 0.00 | 82 | 1019.7 |
| 20260830185719 | 0 | 0.0 | 0.0 | 0.00 | 0.00 | 0.00 | |||
| 20260830185458 | 57 | 164 | 3.0 | 5.0 | 0.00 | 0.00 | 0.00 | 82 | 1019.7 |
| 20260830185220 | 0 | 0.0 | 0.0 | 0.00 | 0.00 | 0.00 | |||
| 20260830184958 | 57 | 150 | 3.0 | 5.0 | 0.00 | 0.00 | 0.00 | 82 | 1019.7 |
| 20260830184719 | 0 | 0.0 | 0.0 | 0.00 | 0.00 | 0.00 | |||
| 20260830184501 | 56 | 151 | 3.0 | 6.0 | 0.00 | 0.00 | 0.00 | 83 | 1019.7 |
| 20260830183957 | 56 | 147 | 4.0 | 6.0 | 0.00 | 0.00 | 0.00 | 84 | 1019.5 |
| 20260830183716 | 0 | 0.0 | 0.0 | 0.00 | 0.00 | 0.00 | |||
| 20260830183457 | 56 | 106 | 4.0 | 7.0 | 0.00 | 0.00 | 0.00 | 84 | 1019.7 |
| 20260830183216 | 0 | 0.0 | 0.0 | 0.00 | 0.00 | 0.00 | |||
| 20260830182957 | 56 | 132 | 3.0 | 5.0 | 0.00 | 0.00 | 0.00 | 84 | 1019.7 |
| 20260830182717 | 0 | 0.0 | 0.0 | 0.00 | 0.00 | 0.00 | |||
| 20260830182457 | 56 | 117 | 4.0 | 5.0 | 0.00 | 0.00 | 0.00 | 84 | 1019.7 |
| 20260830182217 | 0 | 0.0 | 0.0 | 0.00 | 0.00 | 0.00 | |||
| 20260830181957 | 56 | 120 | 4.0 | 7.0 | 0.00 | 0.00 | 0.00 | 86 | 1019.7 |
| 20260830181717 | 0 | 0.0 | 0.0 | 0.00 | 0.00 | 0.00 | |||
| 20260830181458 | 56 | 145 | 4.0 | 7.0 | 0.00 | 0.00 | 0.00 | 85 | 1019.8 |
| 20260830181217 | 0 | 0.0 | 0.0 | 0.00 | 0.00 | 0.00 | |||
| 20260830180958 | 56 | 152 | 5.0 | 6.0 | 0.00 | 0.00 | 0.00 | 85 | 1019.8 |
| 20260830180718 | 0 | 0.0 | 0.0 | 0.00 | 0.00 | 0.00 | |||
| 20260830180458 | 56 | 139 | 3.0 | 5.0 | 0.00 | 0.00 | 0.00 | 86 | 1019.7 |
| 20260830180217 | 0 | 0.0 | 0.0 | 0.00 | 0.00 | 0.00 | |||
| 20260830175958 | 55 | 147 | 3.0 | 5.0 | 0.00 | 0.00 | 0.00 | 86 | 1019.7 |
| 20260830175457 | 56 | 156 | 3.0 | 5.0 | 0.00 | 0.00 | 0.00 | 86 | 1019.7 |
| 20260830174957 | 55 | 141 | 3.0 | 4.0 | 0.00 | 0.00 | 0.00 | 87 | 1019.5 |
| 20260830174714 | 0 | 0.0 | 0.0 | 0.00 | 0.00 | 0.00 | |||
| 20260830174458 | 55 | 148 | 3.0 | 5.0 | 0.00 | 0.00 | 0.00 | 87 | 1019.5 |
| 20260830173957 | 55 | 125 | 3.0 | 4.0 | 0.00 | 0.00 | 0.00 | 88 | 1019.5 |
| 20260830173457 | 55 | 115 | 3.0 | 4.0 | 0.00 | 0.00 | 0.00 | 88 | 1019.7 |
| 20260830173215 | 0 | 0.0 | 0.0 | 0.00 | 0.00 | 0.00 | |||
| 20260830172957 | 55 | 129 | 2.0 | 3.0 | 0.00 | 0.00 | 0.00 | 89 | 1019.7 |
| 20260830172715 | 0 | 0.0 | 0.0 | 0.00 | 0.00 | 0.00 | |||
| 20260830172458 | 55 | 155 | 4.0 | 5.0 | 0.00 | 0.00 | 0.00 | 89 | 1019.5 |
| 20260830172214 | 0 | 0.0 | 0.0 | 0.00 | 0.00 | 0.00 | |||
| 20260830171957 | 55 | 157 | 3.0 | 4.0 | 0.00 | 0.00 | 0.00 | 89 | 1019.5 |
| 20260830171715 | 0 | 0.0 | 0.0 | 0.00 | 0.00 | 0.00 | |||
| 20260830171457 | 54 | 137 | 2.0 | 4.0 | 0.00 | 0.00 | 0.00 | 90 | 1019.4 |
| 20260830171215 | 0 | 0.0 | 0.0 | 0.00 | 0.00 | 0.00 | |||
| 20260830170957 | 54 | 128 | 3.0 | 6.0 | 0.00 | 0.00 | 0.00 | 91 | 1019.4 |
| 20260830170715 | 0 | 0.0 | 0.0 | 0.00 | 0.00 | 0.00 | |||
| 20260830170459 | 54 | 147 | 3.0 | 5.0 | 0.00 | 0.00 | 0.00 | 91 | 1019.4 |
| 20260830170215 | 0 | 0.0 | 0.0 | 0.00 | 0.00 | 0.00 | |||
| 20260830165959 | 54 | 148 | 4.0 | 6.0 | 0.00 | 0.00 | 0.00 | 90 | 1019.4 |
| 20260830165715 | 0 | 0.0 | 0.0 | 0.00 | 0.00 | 0.00 | |||
| 20260830165458 | 54 | 141 | 3.0 | 5.0 | 0.00 | 0.00 | 0.00 | 90 | 1019.4 |
| 20260830165216 | 0 | 0.0 | 0.0 | 0.00 | 0.00 | 0.00 | |||
| 20260830164957 | 54 | 133 | 3.0 | 4.0 | 0.00 | 0.00 | 0.00 | 90 | 1019.4 |
| 20260830164715 | 0 | 0.0 | 0.0 | 0.00 | 0.00 | 0.00 | |||
| 20260830164458 | 54 | 153 | 4.0 | 5.0 | 0.00 | 0.00 | 0.00 | 91 | 1019.4 |
| 20260830164212 | 0 | 0.0 | 0.0 | 0.00 | 0.00 | 0.00 | |||
| 20260830164007 | 54 | 122 | 4.0 | 6.0 | 0.00 | 0.00 | 0.00 | 90 | 1019.4 |
| 20260830163713 | 0 | 0.0 | 0.0 | 0.00 | 0.00 | 0.00 | |||
| 20260830163458 | 54 | 164 | 4.0 | 6.0 | 0.00 | 0.00 | 0.00 | 91 | 1019.4 |
| 20260830162958 | 54 | 152 | 5.0 | 8.0 | 0.00 | 0.00 | 0.00 | 91 | 1019.4 |
| 20260830162713 | 0 | 0.0 | 0.0 | 0.00 | 0.00 | 0.00 | |||
| 20260830162500 | 54 | 130 | 3.0 | 4.0 | 0.00 | 0.00 | 0.00 | 91 | 1019.3 |
| 20260830162213 | 0 | 0.0 | 0.0 | 0.00 | 0.00 | 0.00 | |||
| 20260830161957 | 54 | 109 | 6.0 | 8.0 | 0.00 | 0.00 | 0.00 | 92 | 1019.3 |
| 20260830161713 | 0 | 0.0 | 0.0 | 0.00 | 0.00 | 0.00 | |||
| 20260830161457 | 53 | 146 | 4.0 | 5.0 | 0.00 | 0.00 | 0.00 | 92 | 1019.3 |
| 20260830161213 | 0 | 0.0 | 0.0 | 0.00 | 0.00 | 0.00 | |||
| 20260830160957 | 53 | 112 | 5.0 | 7.0 | 0.00 | 0.00 | 0.00 | 92 | 1019.2 |
| 20260830160458 | 53 | 107 | 5.0 | 6.0 | 0.00 | 0.00 | 0.00 | 92 | 1019.2 |
| 20260830160213 | 0 | 0.0 | 0.0 | 0.00 | 0.00 | 0.00 | |||
| 20260830155957 | 53 | 120 | 3.0 | 6.0 | 0.00 | 0.00 | 0.00 | 93 | 1019.2 |
| 20260830155711 | 0 | 0.0 | 0.0 | 0.00 | 0.00 | 0.00 | |||
| 20260830155457 | 53 | 126 | 4.0 | 6.0 | 0.00 | 0.00 | 0.00 | 93 | 1019.2 |
| 20260830155212 | 0 | 0.0 | 0.0 | 0.00 | 0.00 | 0.00 | |||
| 20260830154958 | 53 | 107 | 6.0 | 7.0 | 0.00 | 0.00 | 0.00 | 93 | 1019.2 |
| 20260830154710 | 0 | 0.0 | 0.0 | 0.00 | 0.00 | 0.00 | |||
| 20260830154458 | 53 | 107 | 6.0 | 7.0 | 0.00 | 0.00 | 0.00 | 93 | 1019.2 |
| 20260830154211 | 0 | 0.0 | 0.0 | 0.00 | 0.00 | 0.00 | |||
| 20260830153957 | 53 | 102 | 6.0 | 9.0 | 0.00 | 0.00 | 0.00 | 94 | 1019.1 |
| 20260830153711 | 0 | 0.0 | 0.0 | 0.00 | 0.00 | 0.00 | |||
| 20260830153457 | 53 | 102 | 6.0 | 8.0 | 0.00 | 0.00 | 0.00 | 94 | 1019.1 |
| 20260830153210 | 0 | 0.0 | 0.0 | 0.00 | 0.00 | 0.00 | |||
| 20260830152957 | 53 | 117 | 6.0 | 7.0 | 0.00 | 0.00 | 0.00 | 94 | 1019.1 |
| 20260830152711 | 0 | 0.0 | 0.0 | 0.00 | 0.00 | 0.00 | |||
| 20260830152458 | 53 | 110 | 6.0 | 7.0 | 0.00 | 0.00 | 0.00 | 94 | 1019.1 |
| 20260830151957 | 53 | 113 | 4.0 | 6.0 | 0.00 | 0.00 | 0.00 | 94 | 1019.1 |
| 20260830151711 | 0 | 0.0 | 0.0 | 0.00 | 0.00 | 0.00 | |||
| 20260830151458 | 52 | 110 | 5.0 | 6.0 | 0.00 | 0.00 | 0.00 | 94 | 1019.1 |
| 20260830150957 | 52 | 128 | 3.0 | 5.0 | 0.00 | 0.00 | 0.00 | 94 | 1019.2 |
| 20260830150708 | 0 | 0.0 | 0.0 | 0.00 | 0.00 | 0.00 | |||
| 20260830150457 | 53 | 122 | 4.0 | 5.0 | 0.00 | 0.00 | 0.00 | 93 | 1019.1 |
| 20260830145957 | 52 | 118 | 4.0 | 5.0 | 0.00 | 0.00 | 0.00 | 93 | 1019.1 |
| 20260830145457 | 52 | 133 | 2.0 | 3.0 | 0.00 | 0.00 | 0.00 | 93 | 1019.1 |
| 20260830145206 | 0 | 0.0 | 0.0 | 0.00 | 0.00 | 0.00 | |||
| 20260830144958 | 53 | 119 | 4.0 | 5.0 | 0.00 | 0.00 | 0.00 | 93 | 1019.1 |
| 20260830144702 | 0 | 0.0 | 0.0 | 0.00 | 0.00 | 0.00 | |||
| 20260830144458 | 53 | 118 | 4.0 | 6.0 | 0.00 | 0.00 | 0.00 | 93 | 1019.0 |
| 20260830144203 | 0 | 0.0 | 0.0 | 0.00 | 0.00 | 0.00 | |||
| 20260830143958 | 53 | 137 | 3.0 | 4.0 | 0.00 | 0.00 | 0.00 | 92 | 1019.1 |
| 20260830143703 | 0 | 0.0 | 0.0 | 0.00 | 0.00 | 0.00 | |||
| 20260830143458 | 53 | 126 | 4.0 | 5.0 | 0.00 | 0.00 | 0.00 | 92 | 1019.0 |
| 20260830143203 | 0 | 0.0 | 0.0 | 0.00 | 0.00 | 0.00 | |||
| 20260830142958 | 53 | 112 | 6.0 | 8.0 | 0.00 | 0.00 | 0.00 | 91 | 1018.9 |
| 20260830142702 | 0 | 0.0 | 0.0 | 0.00 | 0.00 | 0.00 | |||
| 20260830142457 | 53 | 109 | 5.0 | 7.0 | 0.00 | 0.00 | 0.00 | 90 | 1018.9 |
| 20260830142203 | 0 | 0.0 | 0.0 | 0.00 | 0.00 | 0.00 | |||
| 20260830141958 | 53 | 105 | 5.0 | 7.0 | 0.00 | 0.00 | 0.00 | 90 | 1018.8 |
| 20260830141703 | 0 | 0.0 | 0.0 | 0.00 | 0.00 | 0.00 | |||
| 20260830141458 | 53 | 129 | 4.0 | 6.0 | 0.00 | 0.00 | 0.00 | 89 | 1018.8 |
| 20260830141203 | 0 | 0.0 | 0.0 | 0.00 | 0.00 | 0.00 | |||
| 20260830140958 | 53 | 94 | 6.0 | 9.0 | 0.00 | 0.00 | 0.00 | 89 | 1018.7 |
| 20260830140703 | 0 | 0.0 | 0.0 | 0.00 | 0.00 | 0.00 | |||
| 20260830140457 | 53 | 109 | 4.0 | 6.0 | 0.00 | 0.00 | 0.00 | 88 | 1018.8 |
| 20260830140203 | 0 | 0.0 | 0.0 | 0.00 | 0.00 | 0.00 | |||
| 20260830135957 | 53 | 118 | 5.0 | 6.0 | 0.00 | 0.00 | 0.00 | 88 | 1018.7 |
| 20260830135703 | 0 | 0.0 | 0.0 | 0.00 | 0.00 | 0.00 | |||
| 20260830135457 | 53 | 112 | 6.0 | 6.0 | 0.00 | 0.00 | 0.00 | 87 | 1018.6 |
| 20260830135203 | 0 | 0.0 | 0.0 | 0.00 | 0.00 | 0.00 | |||
| 20260830134957 | 53 | 130 | 3.0 | 4.0 | 0.00 | 0.00 | 0.00 | 86 | 1018.6 |
| 20260830134703 | 0 | 0.0 | 0.0 | 0.00 | 0.00 | 0.00 | |||
| 20260830134457 | 53 | 99 | 5.0 | 7.0 | 0.00 | 0.00 | 0.00 | 85 | 1018.6 |
| 20260830133957 | 53 | 121 | 4.0 | 5.0 | 0.00 | 0.00 | 0.00 | 82 | 1018.6 |
| 20260830133700 | 0 | 0.0 | 0.0 | 0.00 | 0.00 | 0.00 | |||
| 20260830133459 | 53 | 117 | 4.0 | 4.0 | 0.00 | 0.00 | 0.00 | 80 | 1018.6 |
| 20260830133201 | 0 | 0.0 | 0.0 | 0.00 | 0.00 | 0.00 | |||
| 20260830132957 | 54 | 124 | 3.0 | 4.0 | 0.00 | 0.00 | 0.00 | 79 | 1018.6 |
| 20260830132700 | 0 | 0.0 | 0.0 | 0.00 | 0.00 | 0.00 | |||
| 20260830132458 | 53 | 102 | 8.0 | 11.0 | 0.00 | 0.00 | 0.00 | 79 | 1018.4 |
| 20260830132201 | 0 | 0.0 | 0.0 | 0.00 | 0.00 | 0.00 | |||
| 20260830131958 | 53 | 98 | 6.0 | 7.0 | 0.00 | 0.00 | 0.00 | 79 | 1018.4 |
| 20260830131702 | 0 | 0.0 | 0.0 | 0.00 | 0.00 | 0.00 | |||
| 20260830131459 | 53 | 101 | 5.0 | 6.0 | 0.00 | 0.00 | 0.00 | 78 | 1018.4 |
| 20260830131201 | 0 | 0.0 | 0.0 | 0.00 | 0.00 | 0.00 | |||
| 20260830130957 | 53 | 100 | 4.0 | 6.0 | 0.00 | 0.00 | 0.00 | 78 | 1018.5 |
| 20260830130701 | 0 | 0.0 | 0.0 | 0.00 | 0.00 | 0.00 | |||
| 20260830130458 | 53 | 117 | 3.0 | 4.0 | 0.00 | 0.00 | 0.00 | 78 | 1018.5 |
| 20260830130201 | 0 | 0.0 | 0.0 | 0.00 | 0.00 | 0.00 | |||
| 20260830125957 | 53 | 98 | 5.0 | 5.0 | 0.00 | 0.00 | 0.00 | 78 | 1018.4 |
| 20260830125701 | 0 | 0.0 | 0.0 | 0.00 | 0.00 | 0.00 | |||
| 20260830125458 | 53 | 111 | 3.0 | 4.0 | 0.00 | 0.00 | 0.00 | 77 | 1018.5 |
| 20260830125201 | 0 | 0.0 | 0.0 | 0.00 | 0.00 | 0.00 | |||
| 20260830124957 | 53 | 103 | 4.0 | 5.0 | 0.00 | 0.00 | 0.00 | 77 | 1018.5 |
| 20260830124659 | 0 | 0.0 | 0.0 | 0.00 | 0.00 | 0.00 | |||
| 20260830124457 | 53 | 99 | 3.0 | 4.0 | 0.00 | 0.00 | 0.00 | 77 | 1018.5 |
| 20260830124158 | 0 | 0.0 | 0.0 | 0.00 | 0.00 | 0.00 | |||
| 20260830123958 | 53 | 97 | 4.0 | 5.0 | 0.00 | 0.00 | 0.00 | 77 | 1018.6 |
| 20260830123659 | 0 | 0.0 | 0.0 | 0.00 | 0.00 | 0.00 | |||
| 20260830123457 | 53 | 94 | 4.0 | 4.0 | 0.00 | 0.00 | 0.00 | 76 | 1018.5 |
| 20260830123158 | 0 | 0.0 | 0.0 | 0.00 | 0.00 | 0.00 | |||
| 20260830122957 | 54 | 99 | 3.0 | 4.0 | 0.00 | 0.00 | 0.00 | 76 | 1018.5 |
| 20260830122659 | 0 | 0.0 | 0.0 | 0.00 | 0.00 | 0.00 | |||
| 20260830122457 | 54 | 84 | 3.0 | 4.0 | 0.00 | 0.00 | 0.00 | 76 | 1018.5 |
| 20260830121957 | 54 | 84 | 3.0 | 4.0 | 0.00 | 0.00 | 0.00 | 75 | 1018.6 |
| 20260830121457 | 53 | 79 | 3.0 | 3.0 | 0.00 | 0.00 | 0.00 | 76 | 1018.6 |
| 20260830120958 | 53 | 85 | 4.0 | 4.0 | 0.00 | 0.00 | 0.00 | 77 | 1018.6 |
| 20260830120458 | 53 | 89 | 3.0 | 4.0 | 0.00 | 0.00 | 0.00 | 77 | 1018.6 |
| 20260830120159 | 0 | 0.0 | 0.0 | 0.00 | 0.00 | 0.00 | |||
| 20260830115957 | 53 | 104 | 3.0 | 4.0 | 0.00 | 0.00 | 0.00 | 78 | 1018.7 |
| 20260830115659 | 0 | 0.0 | 0.0 | 0.00 | 0.00 | 0.00 | |||
| 20260830115457 | 54 | 110 | 3.0 | 4.0 | 0.00 | 0.00 | 0.00 | 77 | 1018.7 |
| 20260830115159 | 0 | 0.0 | 0.0 | 0.00 | 0.00 | 0.00 | |||
| 20260830114957 | 54 | 99 | 2.0 | 3.0 | 0.00 | 0.00 | 0.00 | 75 | 1018.7 |
| 20260830114659 | 0 | 0.0 | 0.0 | 0.00 | 0.00 | 0.00 | |||
| 20260830114457 | 54 | 101 | 2.0 | 4.0 | 0.00 | 0.00 | 0.00 | 75 | 1018.7 |
| 20260830114159 | 0 | 0.0 | 0.0 | 0.00 | 0.00 | 0.00 | |||
| 20260830113957 | 54 | 83 | 1.0 | 2.0 | 0.00 | 0.00 | 0.00 | 75 | 1018.7 |
| 20260830113656 | 0 | 0.0 | 0.0 | 0.00 | 0.00 | 0.00 | |||
| 20260830113457 | 54 | 89 | 2.0 | 3.0 | 0.00 | 0.00 | 0.00 | 76 | 1018.6 |
| 20260830113157 | 0 | 0.0 | 0.0 | 0.00 | 0.00 | 0.00 | |||
| 20260830112957 | 54 | 73 | 2.0 | 3.0 | 0.00 | 0.00 | 0.00 | 75 | 1018.6 |
| 20260830112457 | 54 | 92 | 2.0 | 3.0 | 0.00 | 0.00 | 0.00 | 76 | 1018.7 |
| 20260830112154 | 0 | 0.0 | 0.0 | 0.00 | 0.00 | 0.00 | |||
| 20260830111957 | 54 | 64 | 1.0 | 3.0 | 0.00 | 0.00 | 0.00 | 77 | 1018.7 |
| 20260830111653 | 0 | 0.0 | 0.0 | 0.00 | 0.00 | 0.00 | |||
| 20260830111457 | 54 | 89 | 2.0 | 2.0 | 0.00 | 0.00 | 0.00 | 76 | 1018.7 |
| 20260830110958 | 54 | 70 | 2.0 | 3.0 | 0.00 | 0.00 | 0.00 | 76 | 1018.6 |
| 20260830105958 | 53 | 41 | 2.0 | 3.0 | 0.00 | 0.00 | 0.00 | 77 | 1018.7 |
| 20260830105458 | 53 | 1 | 0.0 | 2.0 | 0.00 | 0.00 | 0.00 | 77 | 1018.6 |
| 20260830105155 | 0 | 0.0 | 0.0 | 0.00 | 0.00 | 0.00 | |||
| 20260830104958 | 53 | 53 | 0.0 | 2.0 | 0.00 | 0.00 | 0.00 | 76 | 1018.6 |
| 20260830104654 | 0 | 0.0 | 0.0 | 0.00 | 0.00 | 0.00 | |||
| 20260830104458 | 53 | 54 | 2.0 | 3.0 | 0.00 | 0.00 | 0.00 | 77 | 1018.6 |
| 20260830104151 | 0 | 0.0 | 0.0 | 0.00 | 0.00 | 0.00 | |||
| 20260830103957 | 53 | 69 | 2.0 | 4.0 | 0.00 | 0.00 | 0.00 | 77 | 1018.6 |
| 20260830103650 | 0 | 0.0 | 0.0 | 0.00 | 0.00 | 0.00 | |||
| 20260830103457 | 53 | 55 | 3.0 | 4.0 | 0.00 | 0.00 | 0.00 | 77 | 1018.5 |
| 20260830102958 | 54 | 35 | 1.0 | 2.0 | 0.00 | 0.00 | 0.00 | 75 | 1018.6 |
| 20260830102646 | 0 | 0.0 | 0.0 | 0.00 | 0.00 | 0.00 | |||
| 20260830102457 | 54 | 325 | 2.0 | 4.0 | 0.00 | 0.00 | 0.00 | 75 | 1018.6 |
| 20260830102145 | 0 | 0.0 | 0.0 | 0.00 | 0.00 | 0.00 | |||
| 20260830101958 | 54 | 119 | 0.0 | 2.0 | 0.00 | 0.00 | 0.00 | 75 | 1018.6 |
| 20260830101643 | 0 | 0.0 | 0.0 | 0.00 | 0.00 | 0.00 | |||
| 20260830101458 | 54 | 41 | 0.0 | 1.0 | 0.00 | 0.00 | 0.00 | 75 | 1018.4 |
| 20260830101142 | 0 | 0.0 | 0.0 | 0.00 | 0.00 | 0.00 | |||
| 20260830100958 | 55 | 93 | 2.0 | 3.0 | 0.00 | 0.00 | 0.00 | 74 | 1018.4 |
| 20260830100459 | 55 | 91 | 3.0 | 5.0 | 0.00 | 0.00 | 0.00 | 74 | 1018.4 |
| 20260830100144 | 0 | 0.0 | 0.0 | 0.00 | 0.00 | 0.00 | |||
| 20260830095957 | 55 | 94 | 3.0 | 4.0 | 0.00 | 0.00 | 0.00 | 74 | 1018.3 |
| 20260830095643 | 0 | 0.0 | 0.0 | 0.00 | 0.00 | 0.00 | |||
| 20260830095457 | 54 | 87 | 5.0 | 6.0 | 0.00 | 0.00 | 0.00 | 75 | 1018.2 |
| 20260830095143 | 0 | 0.0 | 0.0 | 0.00 | 0.00 | 0.00 | |||
| 20260830094957 | 54 | 85 | 3.0 | 5.0 | 0.00 | 0.00 | 0.00 | 74 | 1018.3 |